Date String (YYYY-MM-DD hh:mm:ss) UTC,Instrument flags,Ambient pressure (hPa),Sample flow (lpm),Bypass flow (lpm),Sample temperature (°C),Ambient temperature (°C),ASC tube jacket temperature (°C),LED temperature (°C),Box temperature (°C),Sample RH (%),Span deviation,Mass concentration (μg/m³),Mass concentration (μg/m³),Mass concentration (μg/m³)
DateTimeUTC,F1_M11,P_M11,Q1_M11,Q2_M11,T1_M11,T2_M11,T3_M11,T4_M11,T5_M11,U1_M11,ZSPAN_M11,X2_M11,X0_M11,X1_M11
2022-07-14 17:00:00,,0831.0,5.00,0.00,29.4,27.2,00.0,38.1,31.2,24.0,0000.0,0004.34,0009.42,0003.81
2022-07-14 17:01:00,,0831.0,5.00,0.00,29.4,27.2,00.0,38.1,31.2,23.7,0000.0,0004.33,0009.55,0003.78
2022-07-14 17:02:00,,0830.9,5.00,0.00,29.4,27.3,00.0,38.1,31.1,24.3,0000.0,0004.29,0009.78,0003.76
2022-07-14 17:03:00,,0830.9,5.00,0.00,29.3,27.5,00.0,38.1,31.1,24.6,0000.0,0004.28,0009.73,0003.75
2022-07-14 17:04:00,,0830.9,5.01,0.00,29.4,27.7,00.0,38.1,31.2,23.9,0000.0,0004.34,0009.83,0003.76
2022-07-14 17:05:00,,0830.9,4.99,0.00,29.4,27.9,00.0,38.1,31.2,23.6,0000.0,0004.36,0009.98,0003.76
2022-07-14 17:06:00,,0830.9,5.00,0.00,29.4,28.1,00.0,38.1,31.3,23.9,0000.0,0004.36,0009.92,0003.77
2022-07-14 17:07:00,,0830.9,5.00,0.00,29.4,28.2,00.0,38.1,31.4,23.5,0000.0,0004.39,0010.35,0003.78
2022-07-14 17:08:00,,0830.9,5.01,0.00,29.5,28.2,00.0,38.1,31.4,23.8,0000.0,0004.40,0010.34,0003.80
2022-07-14 17:09:00,,0830.9,5.01,0.00,29.5,27.6,00.0,38.1,31.3,23.8,0000.0,0004.43,0010.22,0003.81
2022-07-14 17:10:00,,0830.9,5.00,0.00,29.4,27.2,00.0,38.1,31.2,24.5,0000.0,0004.45,0009.53,0003.84
2022-07-14 17:11:00,,0830.9,5.00,0.00,29.4,27.2,00.0,38.1,31.2,24.4,0000.0,0004.45,0009.50,0003.86
2022-07-14 17:12:00,,0830.9,5.00,0.00,29.3,27.3,00.0,38.1,31.1,25.1,0000.0,0004.50,0009.69,0003.89
2022-07-14 17:13:00,,0830.8,5.00,0.00,29.3,27.5,00.0,38.1,31.1,24.5,0000.0,0004.54,0009.75,0003.92
2022-07-14 17:14:00,,0830.8,4.99,0.00,29.3,27.7,00.0,38.1,31.2,24.4,0000.0,0004.60,0009.64,0003.94
2022-07-14 17:15:00,,0830.9,5.01,0.00,29.4,27.9,00.0,38.1,31.2,24.6,0000.0,0004.59,0009.57,0003.98
2022-07-14 17:16:00,,0830.8,5.00,0.00,29.4,28.0,00.0,38.1,31.3,25.1,0000.0,0004.62,0009.92,0004.01
2022-07-14 17:17:00,,0830.8,5.00,0.00,29.4,28.2,00.0,38.1,31.4,25.3,0000.0,0004.64,0010.10,0004.04
2022-07-14 17:18:00,,0830.8,5.02,0.00,29.4,28.0,00.0,38.1,31.4,24.6,0000.0,0004.63,0009.34,0004.06
2022-07-14 17:19:00,,0830.8,5.00,0.00,29.4,27.3,00.0,38.0,31.3,25.0,0000.0,0004.67,0009.34,0004.08
2022-07-14 17:20:00,,0830.7,4.99,0.00,29.4,27.1,00.0,38.0,31.2,24.8,0000.0,0004.69,0009.55,0004.10
2022-07-14 17:21:00,,0830.8,5.00,0.00,29.3,27.2,00.0,38.0,31.1,25.2,0000.0,0004.68,0009.69,0004.11
2022-07-14 17:22:00,,0830.8,5.00,0.00,29.3,27.3,00.0,38.0,31.1,25.4,0000.0,0004.69,0009.74,0004.12
2022-07-14 17:23:00,,0830.8,5.00,0.00,29.3,27.5,00.0,38.0,31.1,25.1,0000.0,0004.66,0010.02,0004.12
2022-07-14 17:24:00,,0830.8,4.99,0.00,29.3,27.7,00.0,38.1,31.2,25.4,0000.0,0004.68,0010.13,0004.14
2022-07-14 17:25:00,,0830.8,5.01,0.00,29.4,27.9,00.0,38.1,31.3,25.4,0000.0,0004.70,0010.45,0004.16
2022-07-14 17:26:00,,0830.8,4.99,0.00,29.4,28.1,00.0,38.1,31.3,25.5,0000.0,0004.71,0010.53,0004.16
2022-07-14 17:27:00,,0830.8,5.01,0.00,29.4,28.2,00.0,38.1,31.4,25.6,0000.0,0004.75,0010.43,0004.18
2022-07-14 17:28:00,,0830.7,5.00,0.00,29.4,27.7,00.0,38.0,31.3,26.5,0000.0,0004.82,0010.34,0004.20
2022-07-14 17:29:00,,0830.7,5.00,0.00,29.4,27.2,00.0,38.0,31.2,26.4,0000.0,0004.84,0010.76,0004.22
2022-07-14 17:30:00,,0830.7,5.00,0.00,29.3,27.1,00.0,38.0,31.1,26.5,0000.0,0004.85,0011.18,0004.24
2022-07-14 17:31:00,,0830.7,4.99,0.00,29.3,27.2,00.0,38.0,31.0,25.2,0000.0,0004.85,0010.94,0004.25
2022-07-14 17:32:00,,0830.8,4.99,0.00,29.3,27.4,00.0,38.0,31.0,25.4,0000.0,0004.89,0010.85,0004.27
2022-07-14 17:33:00,,0830.8,5.01,0.00,29.3,27.6,00.0,38.0,31.1,25.0,0000.0,0004.92,0010.99,0004.29
2022-07-14 17:34:00,,0830.8,5.00,0.00,29.3,27.7,00.0,38.0,31.2,25.5,0000.0,0004.96,0010.88,0004.31
2022-07-14 17:35:00,,0830.8,5.00,0.00,29.3,27.9,00.0,38.0,31.2,25.7,0000.0,0004.99,0010.71,0004.33
2022-07-14 17:36:00,,0830.8,5.01,0.00,29.4,28.1,00.0,38.1,31.3,25.8,0000.0,0005.01,0010.46,0004.35
2022-07-14 17:37:00,,0830.8,4.99,0.00,29.4,28.2,00.0,38.1,31.4,25.9,0000.0,0005.06,0010.44,0004.38
2022-07-14 17:38:00,,0830.8,5.00,0.00,29.4,27.8,00.0,38.0,31.3,25.7,0000.0,0005.03,0010.39,0004.37
2022-07-14 17:39:00,,0830.7,4.99,0.00,29.4,27.2,00.0,38.0,31.2,26.0,0000.0,0004.98,0010.58,0004.36
2022-07-14 17:40:00,,0830.7,4.99,0.00,29.3,27.1,00.0,38.0,31.2,26.3,0000.0,0004.98,0010.22,0004.34
2022-07-14 17:41:00,,0830.7,5.00,0.00,29.3,27.2,00.0,38.0,31.1,26.2,0000.0,0005.00,0009.93,0004.34
2022-07-14 17:42:00,,0830.7,5.00,0.00,29.3,27.4,00.0,38.0,31.0,26.6,0000.0,0005.01,0010.44,0004.35
2022-07-14 17:43:00,,0830.7,5.01,0.00,29.3,27.5,00.0,38.0,31.1,26.4,0000.0,0004.99,0011.44,0004.34
2022-07-14 17:44:00,,0830.7,4.99,0.00,29.3,27.7,00.0,38.0,31.1,25.6,0000.0,0004.97,0011.77,0004.32
2022-07-14 17:45:00,,0830.6,5.01,0.00,29.3,27.9,00.0,38.0,31.2,25.0,0000.0,0004.96,0012.15,0004.29
2022-07-14 17:46:00,,0830.6,5.00,0.00,29.4,28.1,00.0,38.0,31.3,24.8,0000.0,0004.96,0012.04,0004.27
2022-07-14 17:47:00,,0830.6,5.00,0.00,29.4,28.2,00.0,38.1,31.4,25.0,0000.0,0004.91,0012.05,0004.24
2022-07-14 17:48:00,,0830.6,5.01,0.00,29.4,27.9,00.0,38.0,31.3,25.2,0000.0,0004.83,0012.07,0004.20
2022-07-14 17:49:00,,0830.6,5.00,0.00,29.4,27.3,00.0,38.0,31.2,25.5,0000.0,0004.83,0012.00,0004.19
2022-07-14 17:50:00,,0830.6,5.00,0.00,29.3,27.1,00.0,38.0,31.2,25.3,0000.0,0004.81,0011.94,0004.18
2022-07-14 17:51:00,,0830.6,5.00,0.00,29.3,27.2,00.0,38.0,31.1,25.3,0000.0,0004.78,0013.05,0004.18
2022-07-14 17:52:00,,0830.6,5.00,0.00,29.3,27.3,00.0,38.0,31.1,25.2,0000.0,0004.74,0013.75,0004.15
2022-07-14 17:53:00,,0830.6,4.99,0.00,29.3,27.5,00.0,38.0,31.1,25.3,0000.0,0004.73,0013.74,0004.14
2022-07-14 17:54:00,,0830.6,5.00,0.00,29.3,27.7,00.0,38.0,31.1,25.3,0000.0,0004.69,0012.85,0004.12
2022-07-14 17:55:00,,0830.6,5.00,0.00,29.3,27.9,00.0,38.0,31.2,25.2,0000.0,0004.69,0012.56,0004.12
2022-07-14 17:56:00,,0830.6,5.00,0.00,29.3,28.1,00.0,38.0,31.3,25.5,0000.0,0004.69,0012.00,0004.13
2022-07-14 17:57:00,,0830.6,5.00,0.00,29.4,28.2,00.0,38.1,31.3,25.4,0000.0,0004.67,0011.73,0004.13
2022-07-14 17:58:00,,0830.6,4.99,0.00,29.4,28.0,00.0,38.0,31.3,25.9,0000.0,0004.68,0011.72,0004.13
2022-07-14 17:59:00,,0830.5,5.00,0.00,29.4,27.3,00.0,38.0,31.2,25.9,0000.0,0004.68,0011.81,0004.13
